| time (UTC) | temp C | wind direction | speed KPH | gust KPH | rain 1hr cm | rain 24hr cm | rain mn cm | humidity % | barometer mb |
| 20260503204609 | 17 | 0 | 0.0 | 3.2 | 0.00 | 0.00 | 0.00 | 38 | 1017.0 |
| 20260503203103 | 17 | 0 | 0.0 | 4.8 | 0.00 | 0.00 | 0.00 | 40 | 1017.1 |
| 20260503201558 | 17 | 0 | 0.0 | 6.4 | 0.00 | 0.00 | 0.00 | 40 | 1017.3 |
| 20260503200059 | 17 | 328 | 0.0 | 4.8 | 0.00 | 0.00 | 0.00 | 38 | 1017.5 |
| 20260503194554 | 17 | 338 | 1.6 | 4.8 | 0.00 | 0.00 | 0.00 | 38 | 1017.9 |
| 20260503193055 | 17 | 308 | 0.0 | 1.6 | 0.00 | 0.00 | 0.00 | 38 | 1018.1 |
| 20260503191617 | 17 | 0 | 0.0 | 1.6 | 0.00 | 0.00 | 0.00 | 39 | 1018.3 |
| 20260503190056 | 16 | 0 | 0.0 | 3.2 | 0.00 | 0.00 | 0.00 | 40 | 1018.5 |
| 20260503184557 | 16 | 149 | 1.6 | 6.4 | 0.00 | 0.00 | 0.00 | 38 | 1018.6 |
| 20260503183111 | 16 | 247 | 0.0 | 4.8 | 0.00 | 0.00 | 0.00 | 41 | 1018.7 |
| 20260503181555 | 17 | 0 | 0.0 | 3.2 | 0.00 | 0.00 | 0.00 | 39 | 1018.8 |
| 20260503180053 | 16 | 44 | 1.6 | 6.4 | 0.00 | 0.00 | 0.00 | 44 | 1019.1 |
| 20260503174554 | 16 | 45 | 0.0 | 4.8 | 0.00 | 0.00 | 0.00 | 39 | 1019.1 |
| 20260503173116 | 15 | 328 | 0.0 | 3.2 | 0.00 | 0.00 | 0.00 | 38 | 1019.3 |
| 20260503171552 | 14 | 0 | 1.6 | 9.7 | 0.00 | 0.00 | 0.00 | 41 | 1019.6 |
| 20260503120109 | 4 | 0 | 0.0 | 1.6 | 0.00 | 0.00 | 0.00 | 82 | 1020.3 |
| 20260503100104 | 3 | 0 | 0.0 | 0.0 | 0.00 | 0.00 | 0.00 | 82 | 1018.7 |
| 20260503081556 | 5 | 0 | 0.0 | 0.0 | 0.00 | 0.00 | 0.00 | 78 | 1017.7 |
| 20260503071616 | 5 | 0 | 0.0 | 3.2 | 0.00 | 0.00 | 0.00 | 78 | 1017.0 |
| 20260503070106 | 5 | 0 | 0.0 | 1.6 | 0.00 | 0.00 | 0.00 | 76 | 1017.0 |
| 20260503054559 | 5 | 0 | 0.0 | 1.6 | 0.00 | 0.00 | 0.00 | 73 | 1017.2 |
| 20260503053057 | 6 | 0 | 0.0 | 0.0 | 0.00 | 0.00 | 0.00 | 73 | 1017.2 |
| 20260503051555 | 6 | 0 | 0.0 | 0.0 | 0.00 | 0.00 | 0.00 | 71 | 1017.1 |
| 20260503050057 | 6 | 0 | 0.0 | 0.0 | 0.00 | 0.00 | 0.00 | 70 | 1017.0 |
| 20260503044606 | 6 | 0 | 0.0 | 1.6 | 0.00 | 0.00 | 0.00 | 70 | 1017.0 |
| 20260503043059 | 6 | 0 | 0.0 | 1.6 | 0.00 | 0.00 | 0.00 | 68 | 1017.0 |
| 20260503041605 | 6 | 0 | 0.0 | 0.0 | 0.00 | 0.00 | 0.00 | 66 | 1016.9 |
| 20260503040057 | 7 | 0 | 0.0 | 0.0 | 0.00 | 0.00 | 0.00 | 69 | 1016.8 |
| 20260503034606 | 7 | 0 | 0.0 | 0.0 | 0.00 | 0.00 | 0.00 | 67 | 1016.5 |
| 20260503033055 | 7 | 0 | 0.0 | 0.0 | 0.00 | 0.00 | 0.00 | 66 | 1016.5 |
| 20260503031553 | 7 | 0 | 0.0 | 1.6 | 0.00 | 0.00 | 0.00 | 65 | 1016.5 |
| 20260503030056 | 7 | 0 | 0.0 | 1.6 | 0.00 | 0.00 | 0.00 | 64 | 1016.3 |
| 20260503024554 | 7 | 0 | 0.0 | 0.0 | 0.00 | 0.00 | 0.00 | 64 | 1016.3 |
| 20260503023051 | 8 | 0 | 0.0 | 0.0 | 0.00 | 0.00 | 0.00 | 61 | 1016.2 |
| 20260503021550 | 8 | 0 | 0.0 | 0.0 | 0.00 | 0.00 | 0.00 | 61 | 1016.0 |
| 20260503020049 | 8 | 0 | 0.0 | 0.0 | 0.00 | 0.00 | 0.00 | 59 | 1016.0 |
| 20260503014554 | 9 | 0 | 0.0 | 1.6 | 0.00 | 0.00 | 0.00 | 57 | 1015.8 |
| 20260503013051 | 9 | 0 | 0.0 | 1.6 | 0.00 | 0.00 | 0.00 | 55 | 1015.6 |
| 20260503011552 | 10 | 0 | 0.0 | 0.0 | 0.00 | 0.00 | 0.00 | 55 | 1015.4 |
| 20260503010051 | 10 | 0 | 0.0 | 1.6 | 0.00 | 0.00 | 0.00 | 54 | 1015.2 |
| 20260503004611 | 10 | 0 | 0.0 | 4.8 | 0.00 | 0.00 | 0.00 | 51 | 1014.9 |
| 20260503003051 | 10 | 0 | 0.0 | 4.8 | 0.00 | 0.00 | 0.00 | 53 | 1014.3 |
| 20260503001550 | 11 | 0 | 0.0 | 1.6 | 0.00 | 0.00 | 0.00 | 50 | 1014.1 |
| 20260503000055 | 11 | 0 | 0.0 | 4.8 | 0.00 | 0.00 | 0.00 | 48 | 1014.0 |
| 20260502234557 | 11 | 0 | 0.0 | 6.4 | 0.00 | 0.00 | 0.00 | 47 | 1013.7 |
| 20260502233051 | 12 | 55 | 1.6 | 12.9 | 0.00 | 0.00 | 0.00 | 44 | 1013.6 |
| 20260502231605 | 12 | 0 | 0.0 | 4.8 | 0.00 | 0.00 | 0.00 | 44 | 1013.5 |
| 20260502230055 | 13 | 0 | 0.0 | 9.7 | 0.00 | 0.00 | 0.00 | 42 | 1013.3 |
| 20260502224556 | 14 | 0 | 0.0 | 4.8 | 0.00 | 0.00 | 0.00 | 39 | 1013.4 |
| 20260502223055 | 13 | 268 | 0.0 | 4.8 | 0.00 | 0.00 | 0.00 | 41 | 1013.5 |
| 20260502221601 | 15 | 317 | 1.6 | 11.3 | 0.00 | 0.00 | 0.00 | 39 | 1013.2 |
| 20260502214555 | 15 | 74 | 1.6 | 6.4 | 0.00 | 0.00 | 0.00 | 39 | 1012.8 |
| 20260502213052 | 15 | 0 | 0.0 | 6.4 | 0.00 | 0.00 | 0.00 | 39 | 1012.7 |
| 20260502211553 | 15 | 0 | 3.2 | 8.0 | 0.00 | 0.00 | 0.00 | 38 | 1012.4 |
| 20260502210104 | 15 | 0 | 0.0 | 8.0 | 0.00 | 0.00 | 0.00 | 40 | 1012.4 |